Tracking 19170 objects as of 23-May-2018
HD Live streaming from Space Station
objects crossing your sky now

NOAA 16 DEB

Track NOAA 16 DEB now!
10-day predictions


NORAD ID: 41141
Int'l Code: 2000-055BY
Perigee: 759.8 km
Apogee: 857.6 km
Inclination: 98.9 °
Period: 100.9 minutes
Semi major axis: 7179 km
RCS: Unknown
Launch date: September 21, 2000
Source: United States (US)
Launch site: AIR FORCE WESTERN TEST RANGE (AFWTR)

Note: This is SATELLITE DEBRIS
aabbcc
Your satellite tracking list
Your tracking list is empty




NASA's NSSDC Master Catalog

Two Line Element Set (TLE):
1 41141U 00055BY  18142.52035082  .00001017  00000-0  42599-3 0  9993
2 41141  98.9491 244.4316 0068078  31.6866 328.8384 14.27064071128544
Source of the keplerian elements: AFSPC